Simultaneous Nadir Overpasses (SNOs) Predictions

Prediction of SNOs between FY3D and TERRA Satellite Orbit:

Table of predicted SNOs for the next 14.0 days since TLE Epoch: 7/23/2022
Index Date (FY3D) Time (FY3D) Lat,Lon (FY3D) SZA (FY3D ) Date (TERRA) Time (TERRA) Lat,Lon (TERRA) SZA (TERRA ) Distance(km) Time Diff (sec)
1 07/23/2022 11:58:03 -72.07, 179.71 128.02 07/23/2022 11:59:14 -71.98,-179.50 128.13 28.73 71
2 07/23/2022 12:48:44 71.74, -12.35 51.65 07/23/2022 12:48:44 71.73, -12.29 51.63 2.40 0
3 07/23/2022 13:39:26 -71.65, 155.14 128.45 07/23/2022 13:38:13 -71.66, 155.22 128.44 3.05 73
4 07/26/2022 03:25:03 71.79, 128.50 52.26 07/26/2022 03:26:11 71.79, 128.42 52.25 2.70 68
5 07/26/2022 04:15:45 -71.70, -64.01 127.84 07/26/2022 04:15:40 -71.72, -64.06 127.82 3.29 5
6 07/26/2022 05:06:23 71.21, 104.18 51.67 07/26/2022 05:05:13 71.30, 102.89 51.78 47.16 70
7 07/28/2022 18:52:04 -71.80, 76.75 127.14 07/28/2022 18:53:05 -71.83, 76.73 127.12 2.75 61
8 07/28/2022 19:42:50 71.73,-115.82 52.80 07/28/2022 19:42:32 71.72,-115.80 52.79 1.14 18
9 07/28/2022 20:33:20 -71.01, 52.78 127.93 07/28/2022 20:32:12 -71.06, 50.76 127.85 73.22 68
10 07/31/2022 10:19:09 71.80, 25.02 53.50 07/31/2022 10:19:58 71.81, 24.96 53.51 2.63 49
11 07/31/2022 11:09:52 -71.74,-167.57 126.55 07/31/2022 11:09:27 -71.75,-167.51 126.55 2.01 25
12 08/03/2022 01:46:11 -71.80, -26.73 125.83 08/03/2022 01:46:53 -71.83, -26.77 125.81 2.72 42
13 08/03/2022 02:36:57 71.74, 140.68 54.12 08/03/2022 02:36:20 71.72, 140.69 54.10 3.24 37
14 08/05/2022 17:13:16 71.82, -78.50 54.89 08/05/2022 17:13:45 71.83, -78.50 54.90 1.43 29
15 08/05/2022 18:03:58 -71.70, 89.03 125.22 08/05/2022 18:03:15 -71.72, 88.95 125.20 3.56 43



Historial Predications of SNOs between FY3D and TERRA
